Flag for U.S.A. Weather past 2 weeks in Albany, New York, U.S.A.

Now
81 °F

Broken clouds.


Feels Like: 81 °F
Forecast: 65 / 81 °F
Wind: 15 mph from Northwest

Location: Albany County Airport

Current Time: Aug 4, 2015 at 6:03:33 PM

Latest Report: Aug 4, 2015 at 4:51 PM


Visibility: 10 mi

Pressure: 29.83 "Hg

Humidity: 42%

Dew point: 56 °F

Location of AlbanyLocation

Historic Weather in Albany — Graph

°F

Albany temperature yesterday

Maximum temperature yesterday: 88 °F (at 12:51 PM)
Minimum temperature yesterday: 68 °F (at 11:51 PM)
Average temperature yesterday: 75 °F

Past Weeks' High & Low Weather Summary

 TemperatureHumidityPressure
High94 °F (Jul 29, 3:51 PM)93% (Jul 24, 11:51 PM)30.02 "Hg (Jul 24, 11:51 PM)
Low55 °F (Jul 24, 5:51 AM)33% (Jul 23, 3:51 PM)29.57 "Hg (Jul 21, 2:51 PM)
Average75 °F63%29.85 "Hg
* Reported Jul 20 4:51 PM — Aug 4 4:51 PM, Albany, Weather by CustomWeather, © 2015

Note: Actual official high and low records may vary slightly from our data, if they occured in-between our weather recording intervals... More about our weather records

Advertising

Albany weather history for previous 24 hours

 ConditionsComfort  
Time TempWeatherWind HumidityBarometerVisibility
4:51 PM
Tue, Aug 4
81 °FBroken clouds.15 mph42%29.83 "Hg10 mi
3:51 PM84 °FScattered clouds.13 mph41%29.82 "Hg10 mi
2:51 PM83 °FScattered clouds.14 mph46%29.82 "Hg10 mi
1:51 PM79 °FScattered clouds.8 mph62%29.81 "Hg10 mi
12:51 PM81 °FBroken clouds.7 mph60%29.82 "Hg10 mi
11:51 AM80 °FBroken clouds.6 mph62%29.83 "Hg10 mi
10:51 AM77 °FBroken clouds.No wind66%29.84 "Hg10 mi
9:51 AM76 °FPassing clouds.No wind69%29.83 "Hg10 mi
8:51 AM73 °FLight fog.No wind76%29.82 "Hg10 mi
7:51 AM69 °FScattered clouds.3 mph87%29.83 "Hg10 mi
7:00 AM67 °FFog.No wind93%29.84 "Hg2 mi
6:01 AM67 °FFog.No wind90%29.84 "Hg1 mi
4:51 AM68 °FPartly cloudy.No wind90%29.82 "Hg8 mi
3:51 AM68 °FMostly cloudy.5 mph93%29.82 "Hg10 mi
2:51 AM68 °FFog.No wind90%29.81 "Hg9 mi
1:51 AM68 °FLight rain. Overcast.3 mph90%29.81 "Hg10 mi
12:51 AM68 °FPartly cloudy.No wind90%29.80 "Hg10 mi
11:51 PM
Mon, Aug 3
68 °FPassing clouds.No wind90%29.80 "Hg10 mi
11:04 PM70 °FStrong thunderstorms. Fog.8 mph87%29.84 "Hg1 mi
11:00 PM70 °FThunderstorms. Fog.8 mph87%29.84 "Hg3 mi
9:57 PM70 °FThunderstorms. Overcast.No wind87%29.80 "Hg10 mi
8:51 PM72 °FThunderstorms. Broken clouds.3 mph84%29.76 "Hg10 mi
7:51 PM72 °FBroken clouds.5 mph87%29.74 "Hg10 mi
6:51 PM73 °FBroken clouds.3 mph79%29.73 "Hg10 mi
Weather by CustomWeather, © 2015

See weather overviewHow to use our weather pages